Theta_e
335 334 334 332 332 332 334 333 333 333 334 335 337 336 333 332 333 333 334 334 333 332 330 328 326 324 326 329 331 331 330 329 329 330 330 330 330 330 328 323 314 311 313 320 329 332 332 333 333 333 334 334 334 334 333 333 333 332 331 330 328 326
334 334 333 333 333 333 335 335 335 335 336 337 339 338 334 335 335 335 335 334 333 332 330 327 326 324 323 326 331 332 330 329 329 329 330 330 331 330 329 326 316 311 313 319 328 332 332 333 333 333 334 333 334 334 334 334 333 332 331 328 325 323
335 335 333 332 333 335 335 335 335 334 335 336 339 339 335 335 335 335 336 334 334 334 333 333 333 332 329 326 327 330 330 329 328 328 329 329 330 331 330 328 320 312 313 319 327 332 332 333 333 333 333 333 334 334 333 333 333 332 330 328 323 321
338 336 332 330 332 334 335 335 334 332 333 335 337 338 336 335 334 334 334 333 335 338 338 338 338 338 337 332 326 325 328 329 329 328 328 328 328 330 331 330 325 317 317 324 329 331 332 331 331 331 331 332 333 333 333 332 332 331 330 328 323 321
338 338 333 328 330 333 334 334 333 333 333 333 334 335 335 334 333 333 334 333 335 338 339 339 339 338 339 337 331 326 324 326 328 329 328 328 327 328 329 330 329 323 321 327 330 330 330 329 330 329 329 332 332 333 333 332 332 331 330 328 324 321
339 339 333 327 330 333 333 333 333 334 334 332 333 333 334 334 333 334 335 335 336 338 338 339 339 339 339 339 336 333 327 322 323 327 329 329 328 327 328 329 330 329 326 327 327 327 328 328 331 331 330 332 332 332 333 333 332 331 330 328 325 321
340 338 331 327 333 335 334 332 332 335 334 332 332 331 332 333 333 334 336 336 336 337 338 338 338 338 338 339 338 337 332 324 319 322 327 329 329 328 328 328 329 330 329 330 329 329 331 332 334 334 332 333 332 332 333 333 332 331 330 329 326 320
340 338 332 330 335 338 336 333 333 335 334 332 332 332 333 334 335 336 336 337 336 336 337 338 338 338 338 338 338 338 336 332 322 318 322 327 329 328 328 328 330 331 331 331 331 332 333 335 335 335 334 333 333 332 332 332 332 331 330 330 326 321
340 339 336 333 335 338 339 337 336 337 336 335 335 335 335 336 336 337 337 337 336 336 337 338 338 338 338 338 338 338 337 336 331 324 320 323 327 327 328 331 333 334 334 334 333 334 334 334 335 335 334 333 334 333 332 332 332 332 330 330 328 324
340 339 338 336 335 337 338 338 337 338 338 337 337 337 337 337 337 337 337 337 337 337 337 338 338 338 338 338 338 338 337 337 336 332 327 324 325 326 328 331 333 333 334 335 335 336 336 335 335 335 335 333 333 333 332 332 332 332 331 330 329 327
340 340 338 338 338 337 337 338 338 338 338 338 338 338 337 337 337 338 338 338 337 337 337 337 338 338 338 338 338 338 338 337 337 336 334 331 328 326 326 329 331 332 333 335 335 336 336 335 335 335 334 332 332 332 332 332 332 332 331 331 330 327
341 340 339 339 339 338 337 338 339 339 339 339 338 339 338 338 338 338 338 338 338 337 337 337 337 338 338 338 338 337 337 337 337 337 336 335 333 330 329 329 330 331 333 334 334 335 335 335 335 334 333 332 332 332 332 332 331 331 331 331 330 328
340 340 340 340 340 339 338 338 339 339 339 339 339 339 339 339 338 338 338 338 338 337 336 337 338 337 337 337 337 337 337 336 336 337 337 336 335 334 333 331 330 330 331 332 333 333 333 334 334 334 333 333 332 332 332 332 331 331 331 331 330 329
340 340 340 340 340 340 339 339 339 339 338 338 338 338 338 338 337 337 337 337 337 337 337 337 337 337 336 336 336 336 336 335 336 336 337 336 336 335 335 334 333 332 331 331 332 332 332 332 333 333 332 333 333 332 331 331 331 331 331 331 330 330
340 340 340 341 340 340 340 339 339 339 338 338 338 338 338 337 337 337 337 337 336 336 337 336 336 337 336 336 336 336 335 335 335 336 336 336 336 336 336 335 335 334 333 333 332 331 331 331 332 332 332 332 333 333 331 331 331 331 332 332 331 330
340 341 341 341 341 340 339 339 339 339 338 338 338 338 338 337 337 337 337 337 337 337 336 336 337 337 337 336 336 336 335 335 335 335 335 335 336 336 335 335 335 335 334 334 333 332 331 331 333 333 332 333 333 333 332 331 331 332 333 333 331 330
340 341 341 341 341 340 340 340 340 339 339 338 338 338 338 338 338 337 337 337 337 337 337 336 337 337 337 337 336 336 335 335 335 335 335 335 334 335 335 334 334 334 334 334 334 333 332 331 333 334 334 333 334 333 332 331 331 331 331 332 331 331
339 340 340 340 340 340 340 340 340 339 338 338 338 338 338 338 337 337 337 336 337 337 337 337 337 338 338 337 337 337 336 335 335 335 335 335 334 334 334 334 334 334 334 335 334 334 333 332 332 333 334 334 334 333 332 331 331 329 329 330 330 330
338 338 339 339 339 339 339 339 339 338 337 337 338 338 338 337 337 336 336 336 336 336 336 337 338 338 338 338 338 337 337 337 336 336 335 335 335 334 334 334 334 334 335 335 334 334 334 333 333 333 333 334 333 332 332 331 331 330 329 328 328 329
338 338 338 338 338 338 338 338 338 338 338 338 338 338 338 337 336 336 336 336 335 335 335 336 336 337 338 338 338 338 338 338 337 337 336 336 336 335 334 334 334 334 335 335 334 334 334 333 333 333 332 332 333 332 332 331 330 330 330 329 329 329
338 338 338 338 338 338 338 338 338 338 338 338 338 338 338 337 336 336 336 336 336 335 335 336 336 336 337 338 338 338 338 338 338 337 337 336 335 335 335 335 335 335 335 335 335 335 335 334 333 332 332 332 333 332 332 332 331 330 329 329 329 329
337 337 337 337 337 338 338 338 338 338 338 338 338 338 337 337 336 336 335 335 335 335 336 336 336 336 337 337 337 338 338 337 337 337 337 336 336 335 336 336 336 335 336 335 335 335 334 333 332 332 331 331 332 332 331 331 331 330 329 329 330 329
334 335 335 336 336 337 337 338 338 338 338 338 337 336 336 336 336 335 335 335 335 335 335 336 336 337 337 337 337 337 337 335 335 336 336 336 335 335 336 336 336 336 336 335 335 335 334 334 333 331 330 330 331 332 332 331 330 330 330 330 330 330
331 331 332 333 334 335 336 337 338 338 338 338 337 336 336 336 335 335 335 335 335 335 336 336 335 335 335 336 336 337 336 335 335 335 335 335 336 336 336 336 335 336 336 335 334 334 334 334 333 331 329 330 330 332 334 332 330 330 331 330 331 331
329 329 329 331 332 333 334 335 336 336 337 336 336 336 336 336 335 335 335 335 335 335 335 335 335 334 335 335 336 336 336 336 336 335 334 335 335 335 335 336 336 336 335 335 334 334 334 334 334 333 331 331 330 332 333 331 330 332 331 330 332 332
327 327 328 328 329 331 332 333 334 334 334 334 334 334 335 335 335 334 334 334 334 334 334 334 334 335 335 335 335 335 335 335 335 334 334 334 334 334 334 334 335 335 334 334 333 333 333 333 333 333 332 332 331 331 331 330 331 333 332 331 331 332
325 326 326 326 327 328 329 330 330 330 331 331 331 331 332 333 333 333 334 334 334 334 333 334 334 334 334 334 334 335 335 334 333 333 333 333 333 333 333 333 334 333 333 334 332 331 331 332 332 332 332 332 330 329 330 330 331 333 334 332 331 331
324 324 325 325 326 326 327 327 327 327 328 328 328 328 329 329 330 331 332 332 333 333 333 333 333 333 333 333 334 334 334 334 334 334 334 333 333 333 333 333 333 333 333 333 332 331 331 331 330 330 331 331 330 329 329 329 329 330 332 333 332 330
322 322 323 324 324 324 325 325 325 325 325 326 326 327 327 327 327 328 328 329 330 331 331 331 331 332 332 333 333 333 334 334 335 334 333 333 333 333 333 333 332 332 332 332 331 330 330 330 330 329 329 330 330 329 329 328 328 328 329 331 332 331
320 320 321 322 323 323 323 323 323 323 323 324 324 325 325 325 325 325 325 326 327 328 329 329 330 330 331 332 332 333 333 334 334 334 334 334 333 333 333 333 332 332 331 330 330 330 330 329 329 329 329 329 329 328 328 328 328 328 327 328 330 331
319 318 319 320 321 322 321 321 321 321 321 322 322 323 323 322 322 322 323 323 325 325 326 327 328 329 329 330 330 331 332 332 333 334 333 333 333 333 333 333 333 332 331 330 330 330 330 330 329 329 329 329 329 328 328 328 328 329 328 328 328 329
318 318 318 318 319 320 320 319 320 320 320 320 320 320 320 320 320 320 321 321 322 323 324 325 326 326 327 328 329 329 330 330 331 332 332 332 332 332 332 333 332 332 331 330 330 330 330 330 329 329 329 329 329 329 329 329 328 328 328 328 328 328
319 318 317 317 317 317 317 318 318 319 319 319 319 318 318 318 318 318 319 319 319 320 321 322 323 324 325 326 327 328 329 329 329 329 329 330 330 330 331 331 332 331 331 330 330 330 330 330 329 329 329 329 329 329 329 329 329 328 328 328 328 328
318 318 316 316 316 315 315 316 317 318 318 317 317 316 317 317 317 317 316 316 317 318 319 320 321 322 323 323 325 326 326 326 326 326 326 326 326 327 328 329 330 330 330 329 329 330 330 330 330 329 329 329 330 329 329 329 329 328 328 328 328 328
317 317 316 316 315 315 314 314 315 316 316 315 315 315 315 315 316 315 314 314 316 316 317 318 319 320 320 321 322 323 323 323 323 324 325 325 325 325 325 326 328 328 329 329 329 329 329 329 329 329 329 328 329 330 329 329 329 328 328 328 328 328
317 316 316 315 314 314 314 313 313 313 314 314 314 314 314 314 314 314 313 314 315 315 316 316 318 319 318 319 320 320 321 321 322 323 325 325 325 325 325 325 326 326 327 327 328 328 328 329 328 328 328 328 328 329 329 329 329 328 328 328 329 328
317 316 316 315 314 314 314 314 313 312 312 313 313 313 313 313 312 312 313 315 315 315 315 316 316 316 316 318 318 316 317 318 319 321 323 323 324 325 325 325 325 326 326 326 326 327 328 329 328 328 328 328 328 328 329 329 329 328 329 329 329 328
Wind_Speed
15 14 13 14 14 15 14 14 15 15 15 14 13 11 11 12 13 12 11 10 9 8 6 5 5 5 4 5 7 8 9 9 8 7 5 4 4 5 5 6 7 8 10 15 16 13 10 8 8 9 10 9 7 9 12 10 8 7 5 5 6 8
14 13 13 13 14 15 15 14 15 15 14 14 13 12 11 11 11 11 10 9 8 7 6 6 4 3 3 4 6 8 10 9 8 7 6 4 4 4 4 5 6 7 10 14 16 13 11 9 8 8 6 6 5 5 9 9 7 5 4 4 4 7
14 13 13 13 14 14 14 14 14 15 14 14 13 12 12 11 10 10 9 8 7 6 5 6 5 3 1 3 4 7 9 10 9 7 6 5 4 4 3 3 5 6 9 14 16 14 11 9 8 8 5 5 4 4 8 9 6 5 3 2 3 6
14 13 13 13 13 13 13 13 13 14 14 13 12 12 12 11 10 9 9 8 7 6 5 4 4 3 3 4 4 5 7 9 10 9 7 6 4 4 3 3 3 5 9 14 16 14 12 9 8 8 4 2 2 3 7 8 6 5 3 2 2 5
13 13 13 14 14 14 14 13 13 13 14 13 12 12 12 11 10 9 8 8 7 7 6 6 6 6 5 5 4 5 5 8 11 10 9 7 6 5 4 3 3 5 9 14 16 14 13 9 6 6 5 1 3 1 5 7 7 6 4 2 2 4
13 12 12 14 14 14 14 14 15 14 13 13 13 13 12 11 10 10 9 9 9 8 7 6 7 9 7 6 6 4 5 7 10 11 11 9 7 6 4 4 3 4 7 11 13 13 12 8 3 4 5 3 6 4 4 7 9 8 5 3 2 4
14 12 12 13 14 15 15 15 14 13 13 12 12 13 13 12 11 11 10 10 10 9 8 7 8 10 10 8 6 5 5 7 9 10 12 11 9 7 6 5 4 4 5 8 9 10 10 7 6 5 5 6 9 8 6 8 11 10 6 3 2 4
16 13 12 12 13 14 14 13 13 12 12 11 11 12 12 11 11 11 12 12 12 11 10 9 9 11 11 10 9 7 6 6 8 9 10 11 11 9 8 7 6 6 7 8 9 10 10 10 9 9 8 8 11 11 9 10 12 11 8 4 3 4
17 15 12 12 12 13 13 12 12 11 10 11 11 11 11 11 12 12 13 14 14 13 11 10 10 10 11 11 11 10 9 8 8 8 9 10 11 10 10 9 9 10 10 11 11 12 13 13 11 12 11 9 11 13 12 13 13 12 10 7 5 5
16 15 14 13 13 13 14 13 11 10 10 10 10 10 11 12 13 13 13 14 15 14 12 11 10 10 11 12 12 12 12 11 9 9 9 10 11 11 11 11 11 12 14 14 15 15 15 15 15 15 14 11 11 13 13 13 15 14 11 9 7 6
16 16 16 15 14 13 13 13 12 11 11 11 10 11 12 12 13 13 12 12 13 13 13 12 11 11 12 12 13 14 13 14 13 11 10 11 11 12 13 14 14 14 14 14 15 16 16 16 16 16 16 13 9 10 12 11 14 14 13 11 9 8
16 16 15 15 13 13 13 12 12 12 12 12 11 10 11 12 12 12 11 10 10 11 12 12 12 12 13 13 14 14 14 15 15 14 12 12 12 13 14 15 16 16 15 15 15 16 16 17 18 17 18 15 10 10 13 11 12 13 13 13 11 10
14 14 14 13 12 12 13 11 9 9 9 11 11 10 10 10 10 10 11 11 10 9 10 11 12 13 13 14 14 14 15 15 15 15 15 14 14 15 16 17 17 18 18 18 19 19 18 18 20 19 18 17 12 12 16 14 13 13 13 14 13 11
14 13 13 12 12 12 11 10 8 7 7 8 9 10 10 10 10 10 10 11 10 10 10 11 12 12 13 13 14 14 14 14 14 15 16 16 15 15 17 18 18 18 19 20 22 22 21 20 20 20 20 20 16 13 16 17 14 14 14 14 14 13
13 12 11 11 12 12 11 9 9 8 7 7 8 9 10 10 10 10 10 11 10 10 10 11 11 11 12 13 13 14 13 13 13 14 16 16 15 15 15 17 17 18 19 20 22 23 22 21 19 18 19 22 19 14 13 17 18 18 16 15 15 14
11 10 10 11 12 11 10 9 9 8 7 8 8 9 10 10 10 11 11 11 10 11 10 10 10 11 12 13 13 14 13 13 13 14 15 16 17 17 16 16 16 17 18 19 21 22 22 20 18 16 17 20 20 15 12 15 20 22 18 15 16 15
9 8 9 11 12 11 10 9 9 8 8 9 8 8 9 10 11 12 12 11 11 11 11 10 10 11 13 14 14 14 14 13 13 14 15 16 16 17 16 16 17 17 17 17 17 19 20 19 18 17 16 18 19 18 15 13 15 18 18 17 17 17
7 8 9 10 10 9 9 8 8 8 9 10 10 10 9 10 12 13 13 12 12 11 11 12 12 13 14 15 16 15 15 13 13 14 15 15 15 15 16 17 18 18 17 17 17 18 18 18 19 19 18 17 16 17 17 16 16 14 14 16 18 18
7 7 8 7 7 6 6 6 7 7 8 9 10 10 10 11 12 12 13 12 12 13 13 14 14 14 15 16 16 16 16 14 14 14 14 14 14 15 17 18 19 20 19 19 20 20 19 19 19 20 20 19 17 15 16 18 20 17 14 15 17 18
7 5 4 4 4 4 5 6 6 7 8 8 9 10 11 12 11 9 10 11 12 13 14 14 15 16 17 16 16 17 17 16 16 14 13 14 17 18 19 19 19 20 21 21 21 21 20 20 19 20 22 22 20 17 16 17 19 19 16 14 15 18
10 7 5 3 1 1 3 5 6 7 9 9 9 11 11 10 9 8 8 9 10 11 12 13 14 16 16 16 17 18 18 19 18 15 15 17 20 21 20 20 19 20 20 21 22 21 19 18 16 15 17 19 22 22 20 19 18 20 20 17 16 17
13 11 11 8 6 4 4 5 6 7 9 10 11 12 12 11 11 11 10 11 11 11 11 12 12 13 15 16 17 19 20 20 18 15 17 20 21 21 20 20 20 20 21 20 20 20 18 15 13 12 11 9 14 19 21 21 20 19 21 21 20 19
15 13 13 11 9 8 6 6 7 8 9 10 10 12 13 12 12 13 12 11 12 12 11 12 12 12 14 15 16 18 19 19 17 16 18 20 20 20 20 21 22 22 22 21 20 21 20 16 15 12 7 3 4 7 12 16 18 20 21 22 24 23
15 14 13 11 9 9 7 5 4 6 7 9 10 11 11 10 11 12 10 10 11 11 12 12 13 13 14 14 14 15 16 17 17 17 18 19 20 20 20 22 22 22 22 21 20 21 21 20 19 13 5 2 1 1 5 7 11 19 22 22 23 24
14 13 12 11 10 8 7 7 7 6 6 8 10 12 12 13 14 14 13 13 13 12 13 13 14 15 15 14 13 13 14 16 18 19 18 19 21 21 21 22 23 23 23 23 21 21 20 20 23 22 15 7 2 1 4 3 5 11 18 23 25 23
13 12 11 11 10 9 9 10 10 10 11 11 11 12 12 13 15 16 17 16 14 14 13 13 13 14 14 13 13 12 13 15 18 20 20 20 21 22 23 24 24 24 24 25 24 21 20 20 21 24 25 22 16 11 5 3 3 3 8 19 24 24
12 11 11 11 11 11 11 12 12 12 13 13 13 12 11 11 11 13 15 15 14 15 14 14 13 13 13 13 12 12 13 16 17 18 19 20 21 22 23 23 23 24 24 25 24 22 23 23 20 22 26 29 30 26 17 9 6 2 3 9 16 23
12 11 11 10 11 12 13 13 13 13 13 13 12 12 12 12 12 12 12 13 13 14 15 15 16 15 15 14 14 13 13 14 16 16 17 19 20 21 22 22 21 22 23 24 23 23 25 24 21 21 23 24 28 30 27 21 15 9 3 2 7 14
11 11 10 10 10 11 12 13 13 13 14 13 12 12 13 13 12 12 12 12 12 13 13 15 17 18 17 17 16 16 15 14 15 14 15 16 18 19 20 21 21 21 22 23 24 24 25 26 25 24 22 20 23 27 28 27 24 17 8 5 4 5
11 9 9 9 9 11 12 13 14 14 15 14 14 13 13 14 14 13 13 13 13 12 12 12 14 15 16 16 15 15 16 15 15 14 14 16 17 18 19 20 22 23 24 25 25 25 26 28 29 28 26 22 20 22 20 18 20 19 12 8 6 4
11 10 9 7 7 8 11 13 14 15 16 16 15 15 15 16 16 15 15 15 14 13 12 12 12 12 14 14 15 15 15 15 14 15 16 17 17 18 19 19 21 22 23 24 25 25 27 29 29 29 28 26 24 23 20 16 18 21 15 9 7 4
10 11 11 8 6 6 8 11 13 14 16 16 17 16 16 17 16 16 16 15 15 14 14 14 13 14 15 16 16 16 16 16 15 15 16 17 17 18 18 19 20 21 22 23 25 26 27 28 30 29 28 29 28 28 28 26 24 25 22 18 12 5
10 11 12 12 12 10 9 9 10 12 14 15 16 17 17 17 17 16 16 15 14 15 15 16 16 17 18 18 17 17 17 17 16 16 16 17 18 19 19 19 21 22 23 24 25 27 28 28 29 30 30 29 29 30 32 32 30 28 26 23 16 8
10 11 13 15 16 16 15 12 10 11 14 15 16 17 16 16 17 17 17 16 15 14 15 16 16 17 18 18 17 17 17 16 16 17 17 18 19 19 20 20 22 23 24 25 25 26 28 28 29 30 29 29 30 30 31 32 32 30 26 23 19 13
12 13 14 16 18 18 18 16 14 12 14 15 15 15 15 15 17 18 18 18 16 15 16 16 16 17 18 19 18 17 17 18 19 19 19 19 20 20 21 21 23 25 25 25 25 26 27 27 29 30 31 31 31 31 31 31 32 31 29 26 24 22
15 15 16 17 18 18 18 18 18 16 15 15 15 16 16 16 17 18 19 19 18 17 17 17 18 18 19 20 20 21 21 22 23 23 22 20 20 21 22 22 23 25 25 25 25 26 28 27 28 30 31 31 31 31 31 31 31 31 30 29 27 27
17 16 16 17 18 18 18 17 18 18 17 16 16 17 18 18 18 18 18 18 18 18 17 18 19 19 19 20 22 24 25 25 25 24 22 21 21 21 22 22 23 24 25 25 24 26 28 27 26 28 29 29 29 29 29 29 30 28 27 29 29 27
Wind_Direction
149 150 149 146 148 149 146 151 152 150 149 145 141 139 145 153 162 167 169 173 176 177 180 193 205 200 194 182 168 173 182 174 161 152 139 122 101 87 81 79 92 117 150 169 170 163 154 142 122 106 97 84 99 155 166 170 168 157 152 147 152 156
148 151 153 150 153 155 155 158 157 157 157 152 149 155 159 161 169 170 174 179 177 177 174 172 166 159 178 187 173 174 185 183 168 161 152 138 117 98 85 82 95 119 148 165 170 165 155 145 131 119 101 69 73 149 170 174 176 170 165 156 164 162
146 151 156 156 157 158 160 162 163 164 164 162 159 164 170 172 178 180 185 188 184 187 180 171 150 125 156 200 193 184 188 190 183 174 166 157 138 119 106 97 101 122 149 163 168 165 155 149 147 141 110 58 65 135 174 182 184 186 178 160 171 163
150 153 157 160 161 159 161 166 169 169 169 170 169 173 179 181 183 188 194 196 198 205 211 205 183 169 182 198 211 203 196 197 197 193 185 177 164 147 133 135 122 129 149 159 163 161 155 150 154 162 148 50 40 127 171 191 199 201 194 181 176 169
158 158 161 162 161 160 162 170 175 176 177 178 181 186 190 191 189 194 202 206 208 214 227 235 229 220 203 189 199 212 211 206 205 206 203 194 186 179 162 170 167 148 153 159 163 163 159 150 146 171 177 258 299 199 180 206 218 214 200 195 186 184
166 164 166 165 161 162 166 175 180 181 183 183 189 196 199 201 199 202 212 220 220 220 229 244 242 236 231 207 194 200 219 221 215 212 212 209 202 201 193 193 207 192 175 171 173 175 176 175 173 182 188 253 284 273 223 218 221 215 204 204 200 192
171 168 167 170 166 165 170 177 181 183 186 188 193 199 202 204 208 212 220 232 236 233 233 243 239 235 242 237 222 210 211 230 231 221 214 211 210 215 216 212 221 229 221 208 203 200 204 224 237 218 207 242 270 271 245 222 219 216 207 207 205 192
174 174 173 176 175 175 179 180 184 187 188 193 200 205 207 210 219 226 230 238 244 242 236 239 241 239 243 248 249 242 226 226 235 234 224 215 212 216 224 227 235 249 250 242 240 241 248 259 258 247 232 234 258 260 242 224 220 220 213 208 216 188
178 182 185 188 188 189 190 190 192 194 195 202 209 214 219 223 231 238 240 242 243 243 238 238 246 246 245 250 255 257 253 242 236 235 233 228 222 220 226 234 247 262 264 255 255 261 266 269 271 266 248 237 254 252 241 231 223 222 216 208 221 199
184 190 196 200 203 202 201 202 201 202 211 218 223 226 228 231 235 240 246 247 243 242 243 244 248 249 247 251 256 259 261 260 254 237 230 233 233 232 233 236 247 265 270 262 263 268 272 273 276 274 253 242 255 249 241 236 227 224 217 212 221 208
186 192 200 206 212 213 211 211 209 212 225 232 233 232 231 236 241 244 250 250 247 248 252 253 254 255 253 251 253 258 262 265 263 252 241 237 236 238 240 243 247 260 268 263 264 265 267 270 273 270 251 243 256 243 232 227 223 221 216 217 224 213
184 190 199 206 212 218 218 218 218 219 229 237 238 237 238 244 250 250 250 251 254 259 260 258 259 261 260 257 254 259 263 265 266 263 257 251 249 247 247 250 252 257 263 263 263 261 264 268 270 266 249 247 255 237 227 221 218 218 217 219 220 214
181 187 192 195 199 212 220 223 225 222 229 241 244 249 252 253 254 253 254 256 257 259 258 256 258 262 263 261 259 261 265 268 269 266 263 261 258 255 254 255 256 257 260 264 266 265 267 269 269 263 249 246 254 244 230 224 220 219 220 220 217 213
174 179 179 181 188 202 218 225 228 228 231 238 245 254 259 258 254 253 255 256 253 253 255 255 258 262 264 264 263 264 268 271 269 265 265 265 261 258 258 259 262 262 262 265 267 268 269 271 270 262 250 244 254 259 230 219 226 226 226 224 218 214
171 175 171 174 184 196 216 228 233 238 239 241 246 253 257 258 254 253 255 252 252 255 259 262 263 265 266 267 268 268 272 275 272 267 264 265 263 261 263 265 268 268 268 268 268 269 269 271 270 262 255 248 253 266 238 228 236 230 226 224 217 217
169 180 178 175 184 199 216 228 236 241 241 238 239 246 253 259 258 258 257 251 252 258 262 268 271 274 276 276 275 274 278 280 277 273 270 269 267 266 271 276 277 274 271 268 267 268 267 266 266 261 260 255 253 260 249 238 238 227 217 216 215 216
166 182 184 178 184 203 216 226 241 251 258 251 247 251 255 266 272 269 264 256 257 264 270 277 280 284 287 285 284 284 286 286 282 279 279 278 274 272 277 282 284 281 278 273 266 264 263 262 264 265 267 264 258 259 255 240 235 227 215 212 213 214
153 170 177 177 181 198 214 226 243 259 268 267 269 269 266 277 283 279 272 268 268 270 273 278 280 284 288 288 287 289 291 292 290 287 285 285 283 278 279 280 280 279 279 277 271 266 264 263 264 264 267 270 267 261 256 242 232 232 225 220 218 216
136 151 163 170 171 191 221 237 247 258 264 269 277 277 280 288 289 284 280 278 273 269 270 274 278 280 282 283 286 290 292 293 293 292 290 290 289 284 281 278 274 273 272 273 273 270 266 265 264 261 258 265 270 257 245 236 227 227 229 229 228 227
114 127 141 162 173 201 245 264 266 274 276 277 283 285 290 292 288 283 283 286 280 273 273 276 281 282 281 281 285 289 290 290 290 289 289 287 285 283 280 279 276 273 272 271 272 269 267 266 265 264 260 261 266 259 248 244 236 231 231 227 228 234
84 83 81 81 74 265 286 300 298 298 297 297 298 298 303 303 300 295 287 290 288 277 274 277 282 284 284 285 286 287 286 285 285 285 284 281 278 278 278 281 282 279 275 273 272 272 271 267 263 264 263 261 262 260 259 260 250 239 237 233 225 228
73 71 66 57 41 19 337 324 317 314 313 311 309 309 312 316 321 318 309 306 300 285 277 282 287 286 285 285 287 286 283 282 283 282 277 272 271 274 276 278 279 277 275 274 275 278 274 265 256 253 257 267 267 264 263 263 256 242 238 241 236 229
68 64 59 54 47 35 11 335 317 320 328 327 325 323 318 317 321 318 314 317 317 307 298 300 302 300 296 291 287 284 283 283 280 273 269 269 269 271 272 272 272 273 274 273 272 274 271 263 254 251 252 264 272 272 266 257 251 243 237 237 235 229
63 57 53 51 49 47 39 21 350 331 335 339 340 339 333 328 330 327 324 329 333 329 321 320 320 318 315 308 297 291 289 286 280 274 274 277 278 275 273 273 272 271 271 268 266 267 268 262 252 243 230 235 216 259 266 246 240 244 238 231 227 224
59 52 47 45 43 47 53 55 59 52 24 10 5 2 355 349 351 352 346 338 336 334 326 324 327 329 330 326 315 305 294 285 283 283 283 281 280 280 278 274 273 271 268 265 263 265 265 262 256 246 232 228 210 226 259 232 230 248 236 226 225 222
58 51 44 42 40 45 52 54 60 62 53 43 35 25 13 3 360 1 360 350 343 341 332 325 330 335 338 337 328 314 297 287 284 283 284 283 281 281 278 275 274 273 271 267 262 261 262 260 260 254 243 238 239 241 248 196 199 266 238 225 224 221
57 54 49 46 44 48 53 55 61 64 60 57 52 43 39 36 25 20 18 10 360 355 345 340 347 348 345 345 335 317 301 295 292 289 290 288 284 283 281 280 280 277 276 274 266 261 262 259 257 258 251 244 242 241 240 227 207 227 248 226 220 222
51 50 47 48 49 51 56 57 59 60 58 57 52 47 47 45 41 40 39 32 23 14 1 355 0 1 358 356 347 335 322 307 302 301 297 290 287 288 286 283 283 281 276 275 272 266 264 262 255 255 252 245 243 240 238 235 229 220 216 214 213 218
43 40 39 45 47 48 54 57 57 54 52 49 44 46 45 39 36 35 33 33 33 29 19 8 4 4 3 358 350 345 340 325 313 309 303 297 296 293 287 283 282 281 276 274 275 270 266 265 261 259 256 247 242 240 236 234 231 227 223 220 212 205
43 36 35 40 41 40 42 49 53 50 46 43 38 39 39 33 29 24 21 22 24 25 22 14 8 6 6 4 358 350 342 329 318 312 309 308 304 298 292 287 283 281 280 278 277 272 268 268 265 261 259 251 237 232 231 229 226 224 222 220 224 215
56 49 40 29 27 30 34 41 47 48 46 42 39 36 33 29 23 18 16 15 16 14 11 10 7 6 7 7 7 3 353 339 326 318 316 314 308 302 296 291 287 283 282 281 279 274 270 269 265 258 256 251 239 231 227 223 220 218 216 214 217 220
68 64 56 48 44 36 28 31 37 43 44 43 41 37 34 29 24 21 17 14 11 6 3 4 3 3 3 2 3 3 1 354 344 334 327 322 316 310 304 297 292 289 288 286 281 274 268 266 263 258 256 253 246 241 235 233 228 219 216 213 208 208
77 75 67 65 62 52 37 28 31 38 40 41 40 37 33 29 24 22 19 16 13 8 6 6 4 3 2 2 3 1 359 357 352 345 337 329 323 319 314 304 296 293 293 292 287 278 270 268 266 260 258 257 252 245 240 239 235 225 219 214 208 208
86 83 76 72 65 58 53 49 48 47 44 42 38 35 32 26 23 22 19 19 18 16 14 11 9 7 5 5 6 4 1 356 350 344 338 332 325 320 315 307 300 295 292 292 289 283 275 271 270 265 261 261 257 248 242 241 236 229 221 212 206 202
96 90 81 77 70 64 60 55 55 54 47 42 38 36 33 25 23 20 16 18 22 21 18 15 14 11 9 9 6 4 0 355 351 345 341 338 332 325 318 310 303 297 293 290 287 283 279 275 272 269 264 262 258 252 248 244 238 231 222 215 211 205
99 94 86 81 74 70 66 62 59 56 52 49 44 40 35 29 25 20 16 18 21 20 17 17 17 14 11 11 11 9 4 359 356 350 346 343 340 335 327 316 308 302 297 294 291 287 284 279 275 272 266 261 256 253 252 247 239 232 224 218 216 210
97 94 88 83 76 70 68 67 63 58 56 52 48 43 38 32 28 24 21 21 21 20 17 17 18 16 14 16 17 15 11 6 2 357 353 350 344 337 329 320 312 307 302 299 296 291 285 280 279 275 266 260 255 254 255 249 240 234 226 221 219 215